Location: Colebrook
(42.0017°N, 73.0973°W)
Time: 05:15:20
(UTC-05:00)

Amateur Radio Satellites - All Passes

Search period start: 04 December 2016 04:45
Search period end: 05 December 2016 04:45
Location: Colebrook, 42.0017°N, 73.0973°W

Satellite Date Start Highest point End Downlink Frequencies (MHz)
Time Altitude Azimuth
SO-50 04 Dec 04:48:45 04:53:13 52° 53° (NE) 04:57:34 436.795
CUTE-I 04 Dec 04:49:10 04:50:44 11° 88° (E) 04:52:17 437.470
STRAND 1 04 Dec 04:59:46 05:02:50 16° 61° (ENE) 05:05:53 437.568
STARS 04 Dec 05:01:37 05:04:16 16° 268° (W) 05:06:57 437.465
BEESAT 2 04 Dec 05:01:42 05:04:29 19° 111° (ESE) 05:07:17 435.950
PHONESAT 2.4 04 Dec 05:02:46 05:05:14 34° 196° (SSW) 05:07:40 2401.200-2431.200
Cubesat XI-IV 04 Dec 05:12:27 05:16:16 20° 92° (E) 05:20:03 437.490
NOAA 15 04 Dec 05:17:31 05:21:46 24° 94° (E) 05:26:01 137.62
CUBESAT XI-V 04 Dec 05:36:33 05:37:50 11° 271° (W) 05:39:07 437.345
AO-7 04 Dec 05:45:49 05:52:02 24° 308° (NW) 05:58:16 29.400- 29.500
GOMX 1 04 Dec 05:49:15 05:54:44 85° 102° (ESE) 06:00:14 467.674
HORYU 2 04 Dec 05:52:11 05:56:27 47° 289° (WNW) 06:00:41 437.375
YUBILEINY 04 Dec 05:53:30 06:02:16 62° 78° (ENE) 06:10:58 435.215
BRITE-PL 04 Dec 06:01:50 06:06:41 36° 290° (WNW) 06:11:44 437.365/2234.400
CINEMA 3 04 Dec 06:11:31 06:14:18 15° 89° (E) 06:17:03 145.822/145.860
DOVE 4 04 Dec 06:11:42 06:17:00 62° 100° (E) 06:22:08 437.250
BEESAT 3 04 Dec 06:14:18 06:17:52 33° 310° (NW) 06:21:28 437.485
NOAA 18 04 Dec 06:15:47 06:21:08 47° 100° (E) 06:26:25 137.9125
LilacSat-2 04 Dec 06:20:02 06:23:48 70° 285° (WNW) 06:27:33 437.200
Cosmos 2491 04 Dec 06:20:51 06:29:05 47° 88° (E) 06:37:18 435.465 / 435.565
AIST 1 04 Dec 06:23:19 06:27:24 36° 76° (ENE) 06:31:27
CUTE-I 04 Dec 06:26:06 06:31:28 88° 292° (WNW) 06:36:47 437.470
SO-50 04 Dec 06:30:15 06:33:15 18° 250° (WSW) 06:36:12 436.795
Cosmos 2504 04 Dec 06:32:41 06:41:21 55° 76° (ENE) 06:49:33 435.465 / 435.565
STRAND 1 04 Dec 06:36:18 06:41:25 69° 257° (WSW) 06:46:34 437.568
BEESAT 2 04 Dec 06:38:16 06:41:59 39° 309° (NW) 06:45:46 435.950
HO-68 04 Dec 06:42:36 06:48:32 27° 94° (E) 06:54:24 435.675
Cubesat XI-IV 04 Dec 06:51:26 06:56:39 54° 289° (WNW) 07:01:49 437.490
NOAA 15 04 Dec 06:56:44 07:01:42 43° 291° (WNW) 07:06:39 137.62
CUTE 1.7 + AOD 2 04 Dec 06:57:26 07:00:56 25° 95° (E) 07:04:24 437.475
RS-15 04 Dec 07:00:45 07:11:54 54° 111° (ESE) 07:23:33 29.354- 29.394
AIST 2 04 Dec 07:10:37 07:11:48 11° 108° (ESE) 07:13:00 435.215
CANX-2 04 Dec 07:14:33 07:18:37 45° 99° (E) 07:22:39 2200.000
GOMX 1 04 Dec 07:29:11 07:32:04 15° 299° (WNW) 07:35:00 467.674
AAUSAT CUBESAT 2 04 Dec 07:32:11 07:35:21 21° 94° (E) 07:38:30 437.432
UWE-3 04 Dec 07:32:12 07:34:48 15° 91° (E) 07:37:20 435.000/436.395/437.385
UNISAT 6 04 Dec 07:43:38 07:44:41 11° 60° (ENE) 07:45:42 437.425
SEEDS 04 Dec 07:44:40 07:48:48 57° 100° (E) 07:52:55 437.485
CINEMA 3 04 Dec 07:47:04 07:51:52 58° 287° (WNW) 07:56:25 145.822/145.860
PRISM 04 Dec 07:48:26 07:52:18 45° 72° (ENE) 07:56:13 437.425
DOVE 4 04 Dec 07:50:32 07:54:07 19° 297° (WNW) 07:57:40 437.250
YUBILEINY 04 Dec 07:51:14 07:58:25 29° 278° (W) 08:05:37 435.215
NOAA 18 04 Dec 07:57:02 08:01:29 25° 297° (WNW) 08:05:54 137.9125
COMPASS 1 04 Dec 07:59:25 08:03:30 56° 100° (E) 08:07:36 437.405
AIST 1 04 Dec 08:01:33 08:04:43 20° 273° (W) 08:07:52
CUTE-I 04 Dec 08:08:25 08:10:42 13° 303° (WNW) 08:12:58 437.470
TIGRISAT 04 Dec 08:11:46 08:15:04 19° 65° (ENE) 08:18:23 435.000
ANTELSAT 04 Dec 08:12:28 08:15:56 21° 65° (ENE) 08:19:22 437.575/2403.000
ZACube-1 04 Dec 08:17:29 08:21:12 29° 95° (E) 08:24:51 437.345
Cosmos 2491 04 Dec 08:17:56 08:26:01 40° 288° (WNW) 08:34:07 435.465 / 435.565
CUBEBUG 2 04 Dec 08:20:00 08:24:28 83° 102° (ESE) 08:28:46 437.445
FUNcube-1 04 Dec 08:26:24 08:30:15 33° 97° (E) 08:34:01 145.935
Cosmos 2504 04 Dec 08:26:42 08:34:17 34° 277° (W) 08:41:34 435.465 / 435.565
HO-68 04 Dec 08:29:34 08:36:38 60° 292° (WNW) 08:43:39 435.675
CUTE 1.7 + AOD 2 04 Dec 08:33:08 08:36:44 28° 291° (WNW) 08:40:19 437.475
AIST 2 04 Dec 08:45:35 08:49:40 70° 304° (NW) 08:53:50 435.215
CUSAT 1 04 Dec 08:48:51 08:51:23 20° 96° (E) 08:53:37 437.405
DELFI C3 04 Dec 08:50:09 08:53:10 21° 94° (E) 08:56:11 145.870
CANX-2 04 Dec 08:51:27 08:54:07 16° 295° (WNW) 08:56:45 2200.000
Oscar 11 04 Dec 08:59:35 09:03:54 78° 103° (ESE) 09:08:11 145.826/435.025
AAUSAT CUBESAT 2 04 Dec 09:07:11 09:10:51 32° 290° (WNW) 09:14:33 437.432
UWE-3 04 Dec 09:07:22 09:11:31 46° 288° (WNW) 09:15:34 435.000/436.395/437.385
RS-15 04 Dec 09:12:58 09:24:29 53° 315° (NW) 09:36:33 29.354- 29.394
DANDE 04 Dec 09:13:04 09:15:47 15° 94° (E) 09:18:08 436.750
UNISAT 6 04 Dec 09:15:56 09:20:39 89° 72° (ENE) 09:25:21 437.425
SEEDS 04 Dec 09:22:02 09:24:00 13° 297° (WNW) 09:26:00 437.485
PRISM 04 Dec 09:25:37 09:27:51 14° 268° (W) 09:30:05 437.425
POPSAT HIP 1 04 Dec 09:27:32 09:29:40 14° 63° (ENE) 09:31:47 437.405
COMPASS 1 04 Dec 09:36:35 09:38:35 13° 296° (WNW) 09:40:37 437.405
Cosmos 2499 04 Dec 09:41:01 09:45:11 14° 56° (NE) 09:49:14 435.465 / 435.565
TIGRISAT 04 Dec 09:46:53 09:51:25 47° 261° (W) 09:55:56 435.000
ANTELSAT 04 Dec 09:47:51 09:52:19 43° 262° (W) 09:56:48 437.575/2403.000
JAS-2 04 Dec 09:53:07 09:59:23 48° 71° (ENE) 10:04:58 435.910
ZACube-1 04 Dec 09:53:56 09:57:22 24° 293° (WNW) 10:00:44 437.345
CUBEBUG 2 04 Dec 09:59:42 10:00:20 10° 300° (WNW) 10:00:59 437.445
FUNcube-1 04 Dec 10:03:05 10:06:17 21° 294° (WNW) 10:09:26 145.935
HUMSAT D 04 Dec 10:04:07 10:08:13 78° 103° (ESE) 10:12:16 437.325/437.525
BUGSAT 1 04 Dec 10:16:43 10:19:14 16° 64° (ENE) 10:21:47 437.445
HO-68 04 Dec 10:20:16 10:22:53 12° 312° (NW) 10:25:31 435.675
NANOSAT C BR1 04 Dec 10:21:25 10:25:30 47° 72° (ENE) 10:29:36 145.865
DELFI C3 04 Dec 10:24:32 10:28:00 30° 290° (WNW) 10:31:29 145.870
QB50P2 04 Dec 10:25:02 10:29:15 60° 74° (ENE) 10:33:29 145.880/145.840
POLYITAN 1 04 Dec 10:25:38 10:29:50 57° 74° (ENE) 10:34:05 437.675
AIST 2 04 Dec 10:27:45 10:28:56 11° 324° (NW) 10:30:07 435.215
GONETS M04 04 Dec 10:31:00 10:38:12 28° 67° (ENE) 10:45:21
CUSAT 1 04 Dec 10:31:40 10:33:11 13° 285° (WNW) 10:34:37 437.405
AO-85 04 Dec 10:32:22 10:36:08 38° 50° (NE) 10:39:46 145.980
Oscar 11 04 Dec 10:38:29 10:39:23 11° 299° (WNW) 10:40:18 145.826/435.025
QB50P1 04 Dec 10:39:18 10:43:35 81° 76° (ENE) 10:47:53 145.935-145.965
ESTCUBE 1 04 Dec 10:43:37 10:47:33 29° 96° (E) 10:51:28 437.505/2401.250
DUCHIFAT 1 04 Dec 10:44:32 10:48:48 79° 74° (ENE) 10:53:04 145.980
DANDE 04 Dec 10:53:45 10:58:24 40° 281° (WNW) 11:01:57 436.750
AISAT 04 Dec 10:59:38 11:02:47 19° 93° (E) 11:05:55 437.250
POPSAT HIP 1 04 Dec 11:00:42 11:04:56 60° 260° (W) 11:09:11 437.405
PCSat 04 Dec 11:02:11 11:07:01 34° 110° (ESE) 11:11:53 145.827
Oscar 19 04 Dec 11:08:00 11:11:09 17° 61° (ENE) 11:14:19 437.125/150
CUBEBUG 1 04 Dec 11:30:20 11:34:43 56° 100° (E) 11:39:04 437.445
RS-15 04 Dec 11:31:08 11:40:49 26° 347° (NNW) 11:50:39 29.354- 29.394
Cosmos 2499 04 Dec 11:31:36 11:40:17 68° 79° (ENE) 11:48:19 435.465 / 435.565
VELOX 1 04 Dec 11:35:51 11:40:07 42° 99° (E) 11:44:21 145.980
JAS-2 04 Dec 11:39:06 11:44:34 27° 264° (W) 11:49:34 435.910
BUGSAT 1 04 Dec 11:50:06 11:54:11 49° 261° (W) 11:58:20 437.445
DX 1 04 Dec 11:56:07 12:00:12 37° 98° (E) 12:04:15 434.975-435.025
NANOSAT C BR1 04 Dec 11:58:55 12:01:27 15° 268° (W) 12:04:00 145.865
QB50P2 04 Dec 12:03:41 12:05:25 12° 270° (W) 12:07:08 145.880/145.840
POLYITAN 1 04 Dec 12:04:02 12:05:59 13° 270° (W) 12:07:57 437.675
UKube-1 04 Dec 12:07:19 12:11:20 36° 98° (E) 12:15:20 .
AO-85 04 Dec 12:13:29 12:16:13 18° 249° (WSW) 12:18:53 145.980
TISAT 1 04 Dec 12:19:16 12:21:19 13° 91° (E) 12:23:22 437.305
ESTCUBE 1 04 Dec 12:20:26 12:24:16 28° 292° (WNW) 12:28:06 437.505/2401.250
50 SAT 04 Dec 12:22:54 12:26:24 55° 286° (WNW) 12:29:53 437.505
SPROUT 04 Dec 12:24:06 12:28:26 84° 281° (WNW) 12:32:42 437.525
Gurwin Techsat 1B 04 Dec 12:25:01 12:30:00 43° 69° (ENE) 12:35:01 435.225
GONETS M04 04 Dec 12:27:05 12:35:42 67° 267° (W) 12:44:18
AISAT 04 Dec 12:35:11 12:39:25 42° 289° (WNW) 12:43:37 437.250
Oscar 19 04 Dec 12:44:50 12:49:55 66° 258° (WSW) 12:55:03 437.125/150
PCSat 04 Dec 12:45:24 12:50:22 36° 309° (NW) 12:55:22 145.827
BEESAT 3 04 Dec 12:53:36 12:56:27 18° 44° (NE) 12:59:18 437.485
AO-7 04 Dec 13:00:30 13:07:13 29° 55° (NE) 13:13:57 29.400- 29.500
CUBEBUG 1 04 Dec 13:07:58 13:10:31 15° 297° (WNW) 13:13:03 437.445
ITAMSAT 1 04 Dec 13:09:45 13:14:05 27° 65° (ENE) 13:18:24 435.822/435.867
VELOX 1 04 Dec 13:13:03 13:16:15 20° 295° (WNW) 13:19:27 145.980
BEESAT 2 04 Dec 13:18:35 13:21:14 17° 42° (NE) 13:23:52 435.950
ITUPSAT 1 04 Dec 13:21:51 13:23:58 13° 90° (E) 13:26:06 437.325
Cosmos 2499 04 Dec 13:25:53 13:32:33 26° 280° (W) 13:38:55 435.465 / 435.565
DX 1 04 Dec 13:32:49 13:36:09 21° 294° (WNW) 13:39:27 434.975-435.025
AUBIESAT-1 04 Dec 13:43:42 13:46:57 19° 97° (E) 13:50:07 437.475
UKube-1 04 Dec 13:43:51 13:47:08 21° 294° (WNW) 13:50:25 .
RS-15 04 Dec 13:48:26 13:58:51 30° 23° (NNE) 14:09:09 29.354- 29.394
TISAT 1 04 Dec 13:53:08 13:57:16 53° 287° (WNW) 14:01:22 437.305
M-CUBED/EXP-1 PRIME 04 Dec 13:53:38 13:57:44 30° 100° (E) 14:01:43 437.505
Gurwin Techsat 1B 04 Dec 14:05:47 14:10:06 25° 266° (W) 14:14:26 435.225
MOZHAYETS 4 04 Dec 14:19:00 14:20:46 12° 89° (E) 14:22:31
SWISSCUBE 04 Dec 14:26:52 14:31:37 69° 102° (ESE) 14:36:20 437.505
GONETS M04 04 Dec 14:28:12 14:30:42 11° 288° (WNW) 14:33:12
BEESAT 3 04 Dec 14:30:29 14:34:21 49° 242° (WSW) 14:38:11 437.485
BEESAT 04 Dec 14:31:07 14:35:52 68° 102° (ESE) 14:40:36 436.000
ITAMSAT 1 04 Dec 14:48:28 14:53:21 39° 262° (W) 14:58:14 435.822/435.867
AO-7 04 Dec 14:51:01 14:59:17 72° 254° (WSW) 15:07:38 29.400- 29.500
BEESAT 2 04 Dec 14:55:24 14:59:23 60° 241° (WSW) 15:03:20 435.950
ITUPSAT 1 04 Dec 14:57:32 15:02:16 68° 287° (WNW) 15:06:58 437.325
KKS-1 04 Dec 15:02:27 15:04:54 14° 91° (E) 15:07:20 437.445
HORYU 2 04 Dec 15:15:23 15:18:19 17° 64° (ENE) 15:21:15 437.375
AUBIESAT-1 04 Dec 15:17:08 15:21:34 47° 294° (WNW) 15:25:51 437.475
GOMX 1 04 Dec 15:24:00 15:25:06 11° 58° (ENE) 15:26:11 467.674
M-CUBED/EXP-1 PRIME 04 Dec 15:27:59 15:32:07 31° 297° (WNW) 15:36:09 437.505
AIST 2 04 Dec 15:29:34 15:31:31 13° 38° (NE) 15:33:27 435.215
O/OREOS (USA 219) 04 Dec 15:32:17 15:36:21 32° 105° (ESE) 15:40:25 437.305
BRITE-PL 04 Dec 15:35:33 15:39:16 30° 68° (ENE) 15:43:13 437.365/2234.400
CUBESAT XI-V 04 Dec 15:52:25 15:55:33 18° 92° (E) 15:58:42 437.345
MOZHAYETS 4 04 Dec 15:53:49 15:58:22 66° 286° (WNW) 16:02:52
RS-15 04 Dec 16:01:47 16:14:12 70° 52° (NE) 16:26:12 29.354- 29.394
NOAA 18 04 Dec 16:05:17 16:08:05 14° 57° (ENE) 16:10:53 137.9125
SWISSCUBE 04 Dec 16:06:20 16:08:49 14° 299° (WNW) 16:11:18 437.505
CUTE-I 04 Dec 16:10:03 16:14:04 22° 63° (ENE) 16:18:04 437.470
BEESAT 04 Dec 16:10:33 16:13:05 14° 299° (WNW) 16:15:36 436.000
Cosmos 2491 04 Dec 16:31:02 16:37:42 23° 64° (ENE) 16:44:18 435.465 / 435.565
Cubesat XI-IV 04 Dec 16:34:26 16:39:13 34° 67° (ENE) 16:44:03 437.490
KKS-1 04 Dec 16:37:23 16:41:46 55° 288° (WNW) 16:46:08 437.445
NOAA 15 04 Dec 16:37:46 16:42:38 41° 69° (ENE) 16:47:31 137.62
STARS 04 Dec 16:48:18 16:52:46 89° 272° (W) 16:57:10 437.465
AO-7 04 Dec 16:50:04 16:53:26 13° 273° (W) 16:56:50 29.400- 29.500
HORYU 2 04 Dec 16:50:08 16:54:29 49° 260° (W) 16:58:51 437.375
ISS 04 Dec 16:52:37 16:55:53 78° 145° (SE) 16:59:12 145.825
GOMX 1 04 Dec 16:57:47 17:02:17 90° 328° (NNW) 17:07:10 467.674
LilacSat-2 04 Dec 17:01:50 17:05:37 57° 75° (ENE) 17:09:25 437.200
YUBILEINY 04 Dec 17:04:55 17:08:02 12° 73° (ENE) 17:11:10 435.215
AIST 2 04 Dec 17:06:24 17:10:39 84° 57° (ENE) 17:14:53 435.215
O/OREOS (USA 219) 04 Dec 17:11:56 17:15:46 26° 302° (WNW) 17:19:37 437.305
HO-68 04 Dec 17:12:43 17:17:58 23° 56° (NE) 17:23:13 435.675
CINEMA 3 04 Dec 17:13:13 17:16:18 17° 62° (ENE) 17:19:25 145.822/145.860
BRITE-PL 04 Dec 17:14:20 17:17:48 24° 267° (W) 17:21:27 437.365/2234.400
DOVE 4 04 Dec 17:17:03 17:21:44 61° 73° (ENE) 17:26:42 437.250
CUBESAT XI-V 04 Dec 17:28:42 17:33:10 47° 288° (WNW) 17:37:38 437.345
NOAA 18 04 Dec 17:42:23 17:47:56 89° 254° (WSW) 17:53:32 137.9125
CUTE-I 04 Dec 17:48:28 17:53:43 53° 260° (W) 17:58:58 437.470
CUTE 1.7 + AOD 2 04 Dec 17:50:54 17:53:55 19° 66° (ENE) 17:56:56 437.475
CANX-2 04 Dec 18:07:37 18:11:24 33° 71° (ENE) 18:15:12 2200.000
Cubesat XI-IV 04 Dec 18:14:30 18:19:16 32° 264° (W) 18:24:03 437.490
RS-15 04 Dec 18:15:10 18:25:52 37° 255° (WSW) 18:36:18 29.354- 29.394
NOAA 15 04 Dec 18:18:13 18:22:31 25° 265° (W) 18:26:51 137.62
AAUSAT CUBESAT 2 04 Dec 18:23:30 18:25:55 15° 65° (ENE) 18:28:21 437.432
Cosmos 2491 04 Dec 18:26:47 18:35:30 78° 266° (W) 18:44:11 435.465 / 435.565
UWE-3 04 Dec 18:29:31 18:32:19 16° 64° (ENE) 18:35:06 435.000/436.395/437.385
ISS 04 Dec 18:30:00 18:32:42 23° 342° (NNW) 18:35:24 145.825
SEEDS 04 Dec 18:36:32 18:40:26 40° 72° (ENE) 18:44:21 437.485
LilacSat-2 04 Dec 18:39:45 18:40:15 10° 270° (W) 18:40:46 437.200
STRAND 1 04 Dec 18:46:33 18:51:19 38° 98° (E) 18:56:03 437.568
CINEMA 3 04 Dec 18:48:00 18:52:51 64° 259° (W) 18:57:51 145.822/145.860
COMPASS 1 04 Dec 18:50:20 18:54:09 38° 71° (ENE) 18:57:59 437.405
AIST 1 04 Dec 18:53:41 18:56:52 21° 87° (E) 19:00:05
YUBILEINY 04 Dec 18:54:28 19:03:04 70° 93° (E) 19:11:45 435.215
DOVE 4 04 Dec 18:57:11 18:59:54 15° 272° (W) 19:02:42 437.250
HO-68 04 Dec 18:57:46 19:04:56 77° 255° (WSW) 19:12:09 435.675
SO-50 04 Dec 19:04:54 19:07:42 16° 109° (ESE) 19:10:30 436.795
Cosmos 2504 04 Dec 19:10:42 19:18:24 45° 87° (E) 19:26:33 435.465 / 435.565
ZACube-1 04 Dec 19:13:20 19:17:08 26° 68° (ENE) 19:20:53 437.345
CUBEBUG 2 04 Dec 19:17:28 19:22:12 72° 75° (ENE) 19:26:56 437.445
CUSAT 1 04 Dec 19:18:23 19:20:40 16° 75° (ENE) 19:23:16 437.405
FUNcube-1 04 Dec 19:21:52 19:25:48 30° 69° (ENE) 19:29:41 145.935
CUTE 1.7 + AOD 2 04 Dec 19:25:35 19:29:29 37° 262° (W) 19:33:25 437.475
NOAA 18 04 Dec 19:27:29 19:29:19 12° 272° (W) 19:31:09 137.9125
DELFI C3 04 Dec 19:37:20 19:39:14 13° 64° (ENE) 19:41:10 145.870
CANX-2 04 Dec 19:44:08 19:47:19 21° 266° (W) 19:50:31 2200.000
PCSat 04 Dec 19:49:15 19:54:07 32° 50° (NE) 19:58:57 145.827
Oscar 11 04 Dec 19:54:18 19:58:33 61° 75° (ENE) 20:02:49 145.826/435.025
AAUSAT CUBESAT 2 04 Dec 19:57:05 20:01:01 46° 261° (W) 20:05:00 437.432
UWE-3 04 Dec 20:03:41 20:08:18 58° 260° (W) 20:12:53 435.000/436.395/437.385
ISS 04 Dec 20:08:00 20:10:05 15° 2° (N) 20:12:10 145.825
SEEDS 04 Dec 20:13:35 20:16:18 17° 268° (W) 20:19:01 437.485
STRAND 1 04 Dec 20:26:06 20:30:18 26° 295° (WNW) 20:34:29 437.568
Cosmos 2491 04 Dec 20:26:36 20:30:46 14° 285° (WNW) 20:34:57 435.465 / 435.565
COMPASS 1 04 Dec 20:27:05 20:29:51 17° 268° (W) 20:32:37 437.405
AIST 1 04 Dec 20:30:21 20:34:13 32° 284° (WNW) 20:38:10
SO-50 04 Dec 20:42:56 20:47:40 65° 305° (NW) 20:52:22 436.795
ZACube-1 04 Dec 20:49:14 20:53:17 31° 264° (W) 20:57:18 437.345
HO-68 04 Dec 20:50:50 20:53:44 13° 273° (W) 20:56:40 435.675
YUBILEINY 04 Dec 20:53:39 21:00:39 26° 294° (WNW) 21:07:44 435.215
HUMSAT D 04 Dec 20:55:11 20:59:19 55° 73° (ENE) 21:03:24 437.325/437.525
CUBEBUG 2 04 Dec 20:57:21 20:59:16 12° 271° (W) 21:01:12 437.445
FUNcube-1 04 Dec 20:58:06 21:01:59 27° 265° (W) 21:05:49 145.935
CUSAT 1 04 Dec 20:59:14 21:02:28 32° 263° (W) 21:06:31 437.405
Cosmos 2504 04 Dec 21:04:01 21:11:48 42° 288° (WNW) 21:20:03 435.465 / 435.565
PRISM 04 Dec 21:04:13 21:08:22 72° 102° (ESE) 21:12:31 437.425
UNISAT 6 04 Dec 21:08:32 21:11:30 18° 92° (E) 21:14:25 437.425
DELFI C3 04 Dec 21:09:50 21:13:38 49° 260° (W) 21:17:28 145.870
DANDE 04 Dec 21:29:48 21:32:30 53° 261° (W) 21:35:42 436.750
PCSat 04 Dec 21:32:32 21:37:34 39° 248° (WSW) 21:42:34 145.827
Oscar 11 04 Dec 21:33:26 21:35:05 12° 270° (W) 21:36:44 145.826/435.025
TIGRISAT 04 Dec 21:38:15 21:42:16 34° 96° (E) 21:46:12 435.000
ANTELSAT 04 Dec 21:39:14 21:43:20 37° 97° (E) 21:47:20 437.575/2403.000
ESTCUBE 1 04 Dec 21:43:33 21:47:21 28° 68° (ENE) 21:51:10 437.505/2401.250
ISS 04 Dec 21:44:27 21:47:23 28° 22° (NNE) 21:50:18 145.825
AISAT 04 Dec 21:57:36 22:00:37 18° 64° (ENE) 22:03:38 437.250
QB50P1 04 Dec 22:25:30 22:27:21 12° 90° (E) 22:29:10 145.935-145.965
CUBEBUG 1 04 Dec 22:26:23 22:30:33 47° 72° (ENE) 22:34:47 437.445
SO-50 04 Dec 22:27:00 22:29:02 13° 325° (NW) 22:31:04 436.795
DUCHIFAT 1 04 Dec 22:30:16 22:31:53 12° 90° (E) 22:33:29 145.980
VELOX 1 04 Dec 22:33:19 22:37:24 39° 70° (ENE) 22:41:32 145.980
HUMSAT D 04 Dec 22:33:21 22:35:13 13° 269° (W) 22:37:07 437.325/437.525
PRISM 04 Dec 22:41:58 22:43:04 11° 299° (WNW) 22:44:12 437.425
UNISAT 6 04 Dec 22:44:15 22:48:26 42° 289° (WNW) 22:52:30 437.425
POPSAT HIP 1 04 Dec 22:45:42 22:48:56 21° 94° (E) 22:52:08 437.405
JAS-2 04 Dec 22:46:32 22:51:16 34° 98° (E) 22:56:08 435.910
DX 1 04 Dec 22:51:54 22:55:48 34° 69° (ENE) 22:59:44 434.975-435.025
50 SAT 04 Dec 22:58:10 23:01:37 58° 75° (ENE) 23:05:05 437.505
UKube-1 04 Dec 23:02:06 23:05:55 32° 69° (ENE) 23:09:47 .
TISAT 1 04 Dec 23:12:10 23:13:39 12° 61° (ENE) 23:15:08 437.305
TIGRISAT 04 Dec 23:15:20 23:18:46 22° 294° (WNW) 23:22:08 435.000
ANTELSAT 04 Dec 23:16:30 23:19:48 21° 294° (WNW) 23:23:02 437.575/2403.000
SPROUT 04 Dec 23:17:24 23:21:41 76° 76° (ENE) 23:26:00 437.525
ESTCUBE 1 04 Dec 23:20:16 23:24:06 28° 264° (W) 23:27:57 437.505/2401.250
ISS 04 Dec 23:20:49 23:24:01 48° 220° (SW) 23:27:13 145.825
BUGSAT 1 04 Dec 23:31:58 23:35:18 22° 94° (E) 23:38:34 437.445
AISAT 04 Dec 23:32:30 23:36:43 45° 261° (W) 23:41:00 437.250
GONETS M04 04 Dec 23:33:18 23:40:31 30° 83° (E) 23:47:44
NANOSAT C BR1 04 Dec 23:40:42 23:44:58 83° 105° (ESE) 23:49:10 145.865
QB50P2 04 Dec 23:45:06 23:49:22 76° 283° (WNW) 23:53:34 145.880/145.840
POLYITAN 1 04 Dec 23:45:41 23:49:56 80° 286° (WNW) 23:54:09 437.675
QB50P1 04 Dec 23:59:18 00:03:28 56° 287° (WNW) 00:07:36 145.935-145.965
SWISSCUBE 05 Dec 00:00:50 00:01:12 10° 58° (ENE) 00:01:33 437.505
DUCHIFAT 1 05 Dec 00:03:46 00:07:57 58° 286° (WNW) 00:12:03 145.980
CUBEBUG 1 05 Dec 00:04:28 00:07:06 16° 269° (W) 00:09:45 437.445
Cosmos 2499 05 Dec 00:07:03 00:15:15 55° 90° (E) 00:23:49 435.465 / 435.565
VELOX 1 05 Dec 00:10:49 00:14:00 19° 267° (W) 00:17:14 145.980
POPSAT HIP 1 05 Dec 00:20:57 00:24:46 33° 290° (WNW) 00:28:34 437.405
DX 1 05 Dec 00:28:39 00:32:03 22° 266° (W) 00:35:28 434.975-435.025
ITUPSAT 1 05 Dec 00:28:40 00:31:47 17° 62° (ENE) 00:34:53 437.325
AUBIESAT-1 05 Dec 00:29:17 00:32:37 23° 60° (ENE) 00:36:06 437.475
PHONESAT 2.4 05 Dec 00:30:05 00:31:55 17° 155° (SSE) 00:33:45 2401.200-2431.200
JAS-2 05 Dec 00:31:55 00:36:17 28° 294° (WNW) 00:40:46 435.910
UKube-1 05 Dec 00:38:35 00:41:59 23° 265° (W) 00:45:25 .
M-CUBED/EXP-1 PRIME 05 Dec 00:39:44 00:43:29 35° 64° (ENE) 00:47:30 437.505
Gurwin Techsat 1B 05 Dec 00:41:56 00:45:10 16° 91° (E) 00:48:21 435.225
TISAT 1 05 Dec 00:44:28 00:48:42 70° 259° (WSW) 00:52:57 437.305
AO-85 05 Dec 00:48:38 00:51:01 14° 109° (ESE) 00:53:21 145.980
Oscar 19 05 Dec 00:55:58 01:00:54 42° 98° (E) 01:05:48 437.125/150
BUGSAT 1 05 Dec 01:06:58 01:10:41 31° 291° (WNW) 01:14:20 437.445
MOZHAYETS 4 05 Dec 01:21:25 01:23:39 14° 62° (ENE) 01:25:52
GONETS M04 05 Dec 01:28:13 01:36:47 59° 283° (WNW) 01:45:23
SWISSCUBE 05 Dec 01:33:24 01:38:11 83° 75° (ENE) 01:42:58 437.505
BEESAT 05 Dec 01:37:36 01:42:23 82° 73° (ENE) 01:47:10 436.000
O/OREOS (USA 219) 05 Dec 01:41:23 01:45:52 67° 66° (ENE) 01:50:19 437.305
Cosmos 2499 05 Dec 02:01:04 02:08:43 35° 291° (WNW) 02:16:42 435.465 / 435.565
KKS-1 05 Dec 02:01:07 02:03:42 15° 62° (ENE) 02:06:16 437.445
AUBIESAT-1 05 Dec 02:03:05 02:06:48 34° 259° (WSW) 02:10:47 437.475
PHONESAT 2.4 05 Dec 02:04:15 02:06:50 50° 172° (S) 02:09:26 2401.200-2431.200
ITUPSAT 1 05 Dec 02:04:29 02:09:10 55° 259° (W) 02:13:53 437.325
M-CUBED/EXP-1 PRIME 05 Dec 02:14:59 02:18:04 21° 262° (W) 02:21:22 437.505
Gurwin Techsat 1B 05 Dec 02:20:17 02:25:33 65° 288° (WNW) 02:30:49 435.225
AO-85 05 Dec 02:26:03 02:30:59 75° 304° (NW) 02:35:34 145.980
Oscar 19 05 Dec 02:35:47 02:39:58 25° 295° (WNW) 02:44:10 437.125/150
AO-7 05 Dec 02:52:22 03:00:04 39° 98° (E) 03:07:43 29.400- 29.500
MOZHAYETS 4 05 Dec 02:55:40 03:00:14 68° 258° (WSW) 03:04:49
CUBESAT XI-V 05 Dec 02:56:22 02:59:32 19° 64° (ENE) 03:02:43 437.345
ITAMSAT 1 05 Dec 03:00:24 03:05:36 71° 103° (ESE) 03:10:45 435.822/435.867
SWISSCUBE 05 Dec 03:15:52 03:16:33 10° 271° (W) 03:17:13 437.505
BEESAT 05 Dec 03:19:50 03:20:43 10° 271° (W) 03:21:36 436.000
O/OREOS (USA 219) 05 Dec 03:23:11 03:24:38 11° 263° (W) 03:26:05 437.305
GONETS M04 05 Dec 03:33:16 03:35:48 11° 306° (NW) 03:38:21
SO-50 05 Dec 03:34:28 03:37:41 19° 40° (NE) 03:40:52 436.795
KKS-1 05 Dec 03:35:23 03:39:46 57° 259° (W) 03:44:13 437.445
PHONESAT 2.4 05 Dec 03:39:22 03:41:59 55° 187° (S) 03:44:35 2401.200-2431.200
BRITE-PL 05 Dec 03:40:22 03:42:39 13° 88° (E) 03:44:57 437.365/2234.400
STARS 05 Dec 03:44:49 03:49:15 84° 73° (ENE) 03:53:43 437.465
AO-85 05 Dec 04:09:51 04:12:06 13° 322° (NW) 04:14:16 145.980
BEESAT 3 05 Dec 04:21:22 04:24:26 23° 113° (ESE) 04:27:32 437.485
CUBESAT XI-V 05 Dec 04:32:10 04:36:33 46° 261° (W) 04:41:00 437.345
